Location: RyutenAO
(34.8939°N, 134.0022°E)
Time: 01:48:14
(UTC+09:00)

NUDT-PHONESAT - Visible Passes

Search period start: 21 March 2023 00:00
Search period end: 31 March 2023 00:00
Orbit: 299 x 302 km, 97.4° (Epoch: 20 March)

Date Brightness Start Highest point End Pass type
(mag) Time Alt. Az. Time Alt. Az. Time Alt. Az.
21 Mar ? 18:58:16 10° SSE 19:00:39 62° ENE 19:03:04 10° N visible
22 Mar ? 19:05:08 10° SSE 19:07:30 89° ENE 19:09:53 10° N visible
23 Mar ? 19:10:37 10° S 19:12:55 68° W 19:15:14 10° NNW visible
24 Mar ? 19:14:41 10° S 19:16:54 54° W 19:19:10 10° NNW visible
25 Mar ? 19:17:19 10° S 19:19:28 47° W 19:21:40 10° NNW visible
26 Mar ? 19:18:31 10° S 19:20:37 44° W 19:22:46 10° NNW visible
27 Mar ? 19:18:17 10° S 19:20:21 46° W 19:22:29 10° NNW visible
28 Mar ? 19:16:37 10° S 19:18:40 52° WSW 19:20:47 10° NNW visible
29 Mar ? 19:13:33 10° S 19:15:35 66° W 19:17:42 10° NNW visible
30 Mar ? 19:09:05 10° SSE 19:11:06 88° E 19:13:13 10° N visible
